{"data":{"norad_id":67441,"intl_designator":"2026-007G","name":"HULIANWANG DIGUI-143","alt_names":[],"object_type":"PAYLOAD","status":"ACTIVE","operator":null,"country":"PRC","launch_date":"2026-01-13","launch_site_code":"WSC","launch_vehicle":null,"mission":null,"orbit_class":"UNKNOWN","rcs_meters":null,"size_class":null,"mass_kg":null,"dimensions":null,"purposes":[],"wikipedia_slug":null,"has_3d_model":false,"image_url":null,"decayed_at":null,"tle_current":{"epoch":"2026-09-20T21:49:37.763040Z","epoch_age_seconds":61239,"freshness":"FRESH","line1":"1 67441U 26007G   26263.90946485 -.00000101  00000+0  50498-4 0  9993","line2":"2 67441  50.0090 102.3961 0000438  50.9909 309.1002 13.29328773 33520","mean_motion":13.29328773,"eccentricity":4.38e-5,"inclination_deg":50.009,"raan_deg":102.3961,"arg_perigee_deg":50.9909,"mean_anomaly_deg":309.1002,"bstar":5.0498e-5,"rev_number":3352,"period_min":108.32534653938,"perigee_km":1148.9664020392,"apogee_km":1149.625805179,"semimajor_km":7527.4331036091,"source":"CELESTRAK","updated_at":"2026-09-21T09:00:16.634377Z"}}}